User: anonymous   Login
Location: Unspecified
(0.0000°N, 0.0000°E)
Time: 18:25:04
(UTC+01:00)
Language:

GPS 2-12 Rocket1 - Orbit

View from above orbital plane
View from above orbital plane
View from above satellite
View from above satellite

Ground track
Ground track

The orbit data is extracted from the following two-line orbital elements,

1 21891U 92009B   17321.16741242  .00000624  00000-0  25724-4 0  9998
2 21891  19.9972 287.2715 0047203 167.9971 192.1580 14.82963452389008
Epoch (UTC): 17 November 2017 04:01:04
Eccentricity: 0.0047203
inclination: 19.9972°
perigee height: 587 km
apogee height: 653 km
right ascension of ascending node: 287.2715°
argument of perigee: 167.9971°
revolutions per day: 14.82963452
mean anomaly at epoch: 192.1580°
orbit number at epoch: 38900

The dashed part of the orbit path shows where the satellite is in the earth's shadow,  

DLR